DMSP 5D-2 F13 DEB, 40487

Orbit data source: Space-Track

DMSP 5D-2 F13 DEB, 40487 is space debris in SSO originally from a launch on Fri, 24 Mar 1995 UTC launched from the Air Force Western Test Range (AFWTR). Debris objects in space refer to the collection of defunct objects orbiting the Earth. Examples of debris include non-operational satellites, rocket bodies, and fragments generated from explosions, collisions, or faulty payload assembly.

Loading next visibility...
Identifier
40487, 1995-015CA
Orbit
SSO
Country
Flag of USUS
Related business
Manufacturer
Unknown
Mission
Spacecraft
Bus & Motor
Unknown
Mass
Unknown
Launch date (UTC)
1995-03-24 (31 years ago)
Launch vehicle
Unknown
Launch site
Air Force Western Test Range (AFWTR)
Object type
Payload
Rocket body
Debris
Shape & HBR
Unknown shape, 0.1 m
Radar Cross Section
Small (<0.1 m²)

Expand to show TLE details & history
Last TLE update: 4 days ago

TLE from 4 days ago
0 DMSP 5D-2 F13 DEB
1 40487U 95015CA  26009.23847060  .00003771  00000-0  17963-2 0  9996
2 40487  99.0386  11.8236 0052837 234.8593 124.7624 14.19205999555921
Epoch: 2026-01-09T05:43Z
TLE epoch observation values (Epoch: 2026-01-09T05:43:23.859Z)
Latitude
-0.0001°
Longitude
177.19312°
Altitude
852.791 km
Speed
7.415 km/s
True Right ascension
00h 47m 17s
True Declination
0° 00' 00"
Sunlit
Object was in daylight at epoch
Visualization orbit readout
Latitude
Unknown
Longitude
Unknown
Altitude
Unknown
Speed
Unknown
Apparent Right ascension
Unknown
Apparent Declination
Unknown
Sunlit
N/A
Visualization observer readout
Local Sidereal Time
07:26:39
Azimuth
Unknown
Elevation
Unknown
Doppler factor
Unknown
Orbital elements
Apogee altitude
863.275 km
Perigee altitude
787.155 km
Semi-major axis
7,203.352 km
Eccentricity
0.00528
Inclination
99.0386°
RAAN
11.8236°
Arg. of periapsis
234.8593°
True anomaly
125.25793°
Mean anomaly
124.7624°
Eccentric anomaly
125.01035°
Mean motion
3.55011 °/min
Orbital period
101.41 mins
BSTAR
0.0017963

Documentation

Showing up to 5 results
|